SCP
1 1 1 1 1 1 1 1 0 0 0 0 0 0 0 0 0 0 0 1 1 1 1 1 0 0 1 1 1 1 1 1 1 1 1 1 1 1 1 1 1 1 1
1 1 1 1 1 1 1 1 1 0 0 0 0 0 0 0 0 0 0 1 1 1 1 1 0 0 0 1 1 1 1 1 1 1 1 1 1 1 1 1 1 1 1
2 1 1 1 1 1 1 1 1 1 0 0 0 0 0 0 0 0 0 0 0 0 1 1 0 0 0 0 0 1 1 1 1 1 1 1 1 1 0 0 0 1 1
2 1 1 1 1 1 1 1 1 1 0 0 0 0 0 0 0 0 0 0 0 0 0 0 0 0 0 0 0 0 1 1 1 1 1 1 1 1 0 0 0 0 0
2 2 1 1 1 1 1 1 1 1 0 0 0 0 0 0 0 0 0 0 0 0 0 0 0 0 0 0 0 0 0 1 1 1 1 1 1 1 0 0 0 0 0
2 2 1 1 1 1 1 1 1 0 0 0 0 0 0 0 0 0 0 0 0 0 0 0 0 0 0 0 0 0 0 0 1 1 1 1 1 1 1 0 0 0 0
2 1 1 1 1 1 1 1 0 0 0 0 0 0 0 0 0 0 0 0 0 0 0 0 0 0 0 0 0 0 0 0 1 1 1 1 1 1 1 0 0 0 0
1 1 1 1 1 1 1 0 0 0 0 0 0 0 0 0 0 0 0 0 0 0 0 0 0 0 0 0 0 0 0 0 0 0 1 1 1 1 1 0 0 0 0
1 1 1 1 1 1 0 0 0 0 0 0 0 0 0 0 0 0 0 0 0 0 0 0 0 0 0 0 0 0 0 0 0 0 0 0 0 0 0 0 0 0 0
1 1 1 1 1 1 0 0 0 0 0 0 0 0 0 0 0 0 0 0 0 0 0 0 0 0 0 0 0 0 0 0 0 0 0 0 0 0 0 0 0 0 0
1 1 1 1 1 0 0 0 0 0 0 0 0 0 0 0 0 0 0 0 0 0 0 0 0 0 0 0 0 0 0 0 0 0 0 0 0 0 0 0 0 0 0
1 1 1 1 0 0 0 0 0 0 0 0 0 0 0 0 0 0 0 0 0 0 0 0 0 0 0 0 0 0 0 0 0 0 0 0 0 0 0 0 0 0 0
1 1 1 0 0 0 0 0 0 0 0 0 0 0 0 0 0 0 0 0 0 0 0 0 0 0 0 0 0 0 0 0 0 0 0 0 0 0 0 0 0 0 0
0 0 0 0 0 0 0 0 0 0 0 0 0 0 0 0 0 0 0 0 0 0 0 0 0 0 0 0 0 0 0 0 0 0 0 0 0 0 0 0 0 0 0
0 0 0 0 0 0 0 0 0 0 0 0 0 0 0 0 0 0 0 0 0 0 0 0 0 0 0 0 0 0 0 0 0 0 0 0 0 0 0 0 0 0 0
0 0 0 0 0 0 0 0 0 0 0 0 0 0 0 0 0 0 0 0 0 0 0 0 0 0 0 0 0 0 0 0 0 0 0 0 0 0 0 0 0 0 0
0 0 0 0 0 0 0 0 0 0 0 0 0 0 0 0 0 0 0 0 0 0 0 0 0 0 0 0 0 0 0 0 0 0 0 0 0 0 0 0 0 0 0
0 0 0 0 0 0 0 0 0 0 0 0 0 0 0 0 0 0 0 0 0 0 0 0 0 0 0 0 0 0 0 0 0 0 0 0 0 0 0 0 0 0 0
0 0 0 0 0 0 0 0 0 0 0 0 0 0 0 0 0 0 0 0 0 0 0 0 0 0 0 0 0 0 0 0 0 0 0 0 0 0 0 0 0 0 0
0 0 0 0 0 0 0 0 0 0 0 0 0 0 0 0 0 0 0 0 0 0 0 0 0 0 0 0 0 0 0 0 0 0 0 0 0 0 0 0 0 0 0
0 0 0 0 0 0 0 0 0 0 0 0 0 0 0 0 0 0 0 0 0 0 0 0 0 0 0 0 0 0 0 0 0 0 0 0 0 0 0 0 0 0 0
0 0 0 0 0 0 0 0 0 0 0 0 0 0 0 0 0 0 0 0 0 0 0 0 0 0 0 0 0 0 0 0 0 0 0 0 0 0 0 0 0 0 0
0 0 0 0 0 0 0 0 0 0 0 0 0 0 0 0 0 0 0 0 0 0 0 0 0 0 0 0 0 0 0 0 0 0 0 0 0 0 0 0 0 0 0
0 0 0 0 0 0 0 0 0 0 0 0 0 0 0 0 0 0 0 0 0 0 0 0 0 0 0 0 0 0 0 0 0 0 0 0 0 0 0 0 0 0 0
0 0 0 0 0 0 0 0 0 0 0 0 0 0 0 0 0 0 0 0 0 0 0 0 0 0 0 0 0 0 0 0 0 0 0 0 0 0 0 0 0 0 0
0 0 0 0 0 0 0 0 0 0 0 0 0 0 0 0 0 0 0 0 0 0 0 0 0 0 0 0 0 0 0 0 0 0 0 0 0 0 0 0 0 0 0
Wind_Speed
1 1 1 0 1 1 1 2 2 3 4 4 4 4 3 3 3 1 1 3 5 7 6 6 7 7 7 7 7 8 8 9 10 11 12 12 12 12 12 11 11 11 11
0 1 1 0 1 1 1 2 2 3 2 3 3 4 3 3 3 2 2 3 5 7 8 7 7 7 7 7 8 8 9 9 10 11 12 13 13 13 13 12 11 11 11
1 1 1 0 1 2 1 2 3 2 3 3 3 4 3 3 3 3 3 2 3 5 8 8 8 7 7 8 8 8 8 8 8 10 11 12 13 13 14 13 13 12 11
1 1 1 1 1 2 1 1 1 2 2 2 3 3 3 2 3 4 4 3 3 3 4 7 8 8 9 9 9 9 9 8 8 9 10 11 12 12 12 12 12 12 11
1 0 0 1 2 1 1 3 2 2 3 3 4 3 3 3 3 4 3 3 2 2 2 4 7 9 9 9 10 10 10 9 9 9 10 10 10 11 11 11 12 12 11
1 0 1 0 2 1 1 2 3 3 2 3 5 5 4 4 3 3 3 2 2 3 2 2 3 5 9 10 10 10 10 10 10 9 10 10 10 10 10 11 11 12 13
1 1 1 0 1 0 1 2 2 3 3 2 3 4 4 5 4 2 2 2 3 3 2 2 2 2 3 8 10 10 10 10 10 10 10 10 10 10 10 10 11 13 13
1 2 1 1 0 1 1 2 2 2 3 2 2 3 3 3 2 2 2 3 3 2 2 3 3 3 3 2 5 9 10 9 10 10 10 10 10 11 11 12 12 12 13
1 1 1 1 1 1 1 2 2 3 3 3 2 2 2 2 4 2 2 2 1 1 2 3 4 3 3 3 3 5 7 7 8 9 10 9 9 11 13 13 12 12 13
2 2 2 2 2 1 1 2 1 3 4 3 2 2 2 2 2 3 3 2 2 2 3 3 3 2 2 2 3 6 7 7 8 8 9 9 9 10 11 12 12 12 13
3 2 2 2 2 1 1 3 2 3 3 3 2 2 3 2 3 3 4 4 3 2 2 2 2 2 3 3 3 4 6 7 8 8 8 9 9 10 11 12 12 12 13
2 3 2 2 2 2 2 3 3 3 3 3 3 3 3 3 3 3 4 4 4 3 3 2 2 2 2 2 3 5 6 7 8 9 9 9 8 9 10 11 12 12 13
2 2 2 2 2 2 3 3 3 3 3 3 3 3 3 3 3 3 3 4 4 4 3 2 2 2 2 1 1 5 6 7 8 8 9 9 9 9 10 11 11 11 12
2 2 2 3 3 3 4 3 3 3 3 3 5 4 3 3 3 3 3 3 4 4 3 4 2 1 1 1 2 5 4 7 8 8 9 9 10 10 10 10 9 9 9
2 2 3 3 3 4 4 3 3 3 3 3 4 4 3 3 3 3 3 3 3 4 4 3 2 2 1 1 2 3 3 6 8 9 9 10 10 10 10 9 9 8 8
2 2 4 4 3 4 4 3 3 3 3 3 3 4 4 3 3 2 3 3 3 4 4 3 3 2 2 3 3 3 3 5 7 8 9 9 9 9 9 9 9 9 9
2 3 3 3 3 4 3 2 3 4 3 4 4 4 4 4 3 3 3 3 3 3 5 4 3 3 3 3 3 2 3 3 4 7 8 9 9 9 10 10 10 10 10
3 3 3 3 4 4 3 3 4 4 3 4 4 4 4 4 4 3 3 4 3 4 4 5 4 3 4 4 4 4 4 4 3 7 9 9 9 9 10 10 10 10 10
3 3 3 3 4 4 4 3 3 3 4 4 5 4 4 4 4 3 4 4 4 4 3 4 4 3 3 4 3 3 4 3 4 5 8 8 9 10 10 10 10 10 11
3 3 3 4 4 4 3 3 3 3 4 4 5 4 4 4 4 4 4 4 4 4 4 3 4 4 3 3 2 3 3 3 3 3 4 5 7 10 10 10 10 10 11
3 2 3 4 4 3 2 3 3 5 4 5 5 5 5 5 5 5 4 3 4 3 3 3 3 3 3 2 2 3 3 2 2 3 2 3 4 4 6 8 10 11 11
3 3 3 4 3 3 2 3 4 5 5 5 5 5 5 4 5 6 7 7 7 5 4 4 4 4 4 3 3 3 2 2 2 2 2 3 3 4 4 5 9 12 12
3 3 4 3 2 1 1 3 5 5 6 6 5 4 5 4 4 4 6 8 8 9 8 5 5 5 4 4 3 4 3 3 4 3 2 4 3 4 4 6 11 13 13
3 3 4 3 2 2 2 4 6 6 6 5 5 4 4 3 4 4 5 5 4 4 5 5 5 6 5 4 3 4 5 4 4 4 3 4 3 3 4 3 8 12 13
3 4 3 2 2 2 3 4 5 5 5 5 5 4 2 2 3 4 4 4 5 4 5 6 6 7 7 8 5 3 4 3 4 3 3 3 3 3 3 3 5 11 12
3 4 3 2 2 1 3 5 5 4 5 5 4 2 2 2 3 3 3 4 5 5 5 5 5 5 5 6 8 6 4 4 3 3 3 2 2 2 2 3 3 4 6
Wind_Direction
247 280 275 268 261 249 232 272 286 289 285 283 279 280 282 291 297 287 202 207 212 209 216 231 241 248 254 252 248 243 238 231 224 217 213 213 214 214 210 211 213 211 212
154 297 267 279 311 323 330 284 288 286 283 282 283 282 282 287 289 269 251 235 231 220 216 222 233 243 251 253 248 242 239 234 229 223 217 214 216 218 213 207 208 210 211
76 318 295 339 338 306 280 274 285 294 281 286 288 288 278 268 276 276 263 249 238 231 225 222 225 232 244 249 249 246 243 238 231 225 220 215 215 216 216 209 205 206 208
88 327 322 22 326 296 301 291 285 303 310 309 293 282 283 273 260 253 248 244 234 238 229 226 223 226 236 244 247 247 243 237 230 224 220 216 214 213 213 209 206 205 206
76 358 348 27 295 291 335 314 342 319 310 303 289 274 275 273 260 261 254 258 262 241 222 222 223 227 233 239 241 244 243 239 233 225 219 218 215 215 213 210 211 206 204
124 300 192 145 289 314 338 327 327 302 285 284 295 297 281 266 255 255 256 252 256 260 235 231 226 235 233 234 237 240 241 239 234 227 221 219 218 213 214 214 213 211 207
150 228 295 202 272 282 294 302 303 299 285 279 291 298 280 259 244 236 247 242 246 255 254 239 229 236 233 231 231 234 237 239 237 232 226 221 215 211 211 214 214 214 212
184 209 187 234 274 263 268 288 286 289 295 301 293 295 294 286 305 259 229 242 244 248 259 267 250 233 237 226 227 227 229 234 236 234 231 228 220 216 214 215 212 212 211
202 221 198 221 262 262 249 274 289 296 293 290 264 266 293 302 321 294 288 280 255 250 253 250 252 243 242 228 223 217 218 223 232 235 234 230 225 222 220 217 215 215 213
211 208 202 197 233 247 254 275 280 283 275 283 286 264 258 270 280 304 300 287 278 264 261 273 278 270 263 240 218 209 210 213 223 233 233 230 230 227 226 220 219 219 217
218 208 207 207 235 239 239 261 267 270 277 287 295 292 291 285 260 267 288 294 290 276 265 263 267 265 256 248 222 201 209 211 215 223 227 228 228 226 229 226 221 218 218
211 196 198 211 234 236 243 255 256 256 261 278 286 286 289 292 290 285 286 294 296 295 289 270 260 260 261 257 246 204 205 210 217 219 219 220 222 227 231 232 228 224 223
225 194 211 219 231 241 247 251 260 260 261 271 274 277 280 282 285 287 287 295 299 296 288 265 245 241 261 248 218 200 213 213 213 213 212 214 218 227 231 231 232 231 224
251 224 229 234 238 238 250 246 256 258 260 265 274 276 274 271 276 275 273 288 296 292 290 282 266 247 249 239 217 206 216 211 206 208 212 217 218 222 227 226 225 229 225
248 236 246 244 245 245 248 251 258 263 271 266 270 276 278 282 266 269 268 262 272 289 290 288 293 295 279 252 214 225 217 205 204 207 212 215 217 218 218 216 216 217 217
268 249 255 256 257 256 251 247 264 259 259 265 265 269 274 268 276 274 269 269 264 269 280 278 279 284 295 288 254 251 237 210 210 207 207 208 210 212 214 214 216 215 215
263 263 263 256 260 261 259 255 265 270 269 276 283 284 283 280 271 267 271 272 268 268 273 277 272 276 274 266 265 256 246 213 208 211 208 206 209 210 213 215 215 216 216
263 261 263 269 270 269 265 258 265 279 281 284 283 284 286 285 279 271 270 276 274 269 270 277 279 275 266 254 245 240 252 239 217 209 207 207 208 209 210 214 214 215 214
262 268 268 268 271 274 275 273 271 280 283 284 285 285 287 282 274 273 273 278 278 280 274 273 278 273 270 267 256 252 255 244 242 217 207 208 210 211 212 212 213 214 215
258 262 267 270 273 278 285 295 301 295 289 290 292 292 286 281 278 277 275 276 285 290 281 274 273 275 272 267 258 251 258 247 246 239 215 209 212 212 215 213 215 216 217
264 264 274 275 272 273 299 323 313 298 297 296 291 289 291 286 278 268 277 285 292 290 292 286 282 285 282 275 265 256 261 261 255 242 224 218 207 209 212 220 220 217 216
276 276 276 279 285 304 342 332 310 304 295 288 289 292 293 283 281 265 261 261 260 268 280 284 281 284 286 286 287 278 277 277 271 245 231 241 216 211 214 210 210 209 210
286 286 280 279 278 301 300 304 302 294 288 286 287 287 295 305 314 298 277 263 256 252 244 257 273 279 281 283 288 285 275 265 266 258 246 254 230 228 221 219 205 204 204
290 288 283 277 267 274 265 284 296 282 280 286 283 276 280 292 306 304 295 295 280 266 252 246 251 258 263 264 268 272 272 269 265 253 230 248 236 224 227 213 203 201 204
289 284 280 278 265 255 250 266 281 286 284 285 284 286 291 300 317 315 306 302 301 294 286 271 259 261 260 261 256 269 268 261 265 257 226 234 243 227 217 215 211 204 203
291 285 283 280 270 256 235 252 271 285 295 296 291 282 292 294 299 306 301 301 300 301 307 301 287 275 264 259 245 234 250 257 261 261 237 232 251 237 243 221 202 194 206